Regional Weather Roundup
Issued by NWS

Home | Current Version | Previous Version | Text Only | Print | Product List | Glossary On
Versions: 1 2 3 4 5 6 7 8 9 10 11 12 13 14 15 16 17 18 19 20 21 22 23 24 25 26 27 28 29 30 31 32 33 34 35 36 37 38 39 40 41 42 43 44 45 46 47 48
000
ASUS42 KTBW 291316
RWRFL
FLORIDA REGIONAL WEATHER ROUNDUP
NATIONAL WEATHER SERVICE TAMPA BAY RUSKIN FL
900 AM EDT SAT AUG 29 2015

NOTE: "FAIR" INDICATES FEW OR NO CLOUDS BELOW 12,000 FEET WITH NO
SIGNIFICANT WEATHER AND/OR OBSTRUCTIONS TO VISIBILITY.


FLZ001>010-012>015-112-114-115-291400-
PANHANDLE FLORIDA

CITY           SKY/WX    TMP DP  RH WIND       PRES   REMARKS
PENSACOLA      MOSUNNY   74  68  81 E6        30.07R
PENSACOLA NAS  MOSUNNY   75  72  90 E13       30.08R THUNDER
MILTON NAS     TSTM      72  70  93 E5        30.09
CRESTVIEW      CLOUDY    73  69  87 CALM      30.12R
DUKE FIELD     FAIR      74  69  83 E1        30.10R
VALPARAISO     CLOUDY    77  70  80 NE2       30.10R
MARY ESTHER    TSTM      75  64  69 N7        30.07
PANAMA CITY    PTSUNNY   74  70  87 NE5       30.08R
TYNDALL AFB    CLOUDY    74  71  89 E8        30.10R
APALACHICOLA   TSTM      67  67 100 S10       30.09S FOG

STATION/POSITION SKY/WX   TEMP    WIND        PRES    WAVE   SWELL
                          AIR SEA DIR/SP/G            HT/PER HT/PER
                          (F)     (DEG/KT/KT) (MB)    (FT/S) (FT/S)
30.1N   87.6W              81 85   10/ 14/ 16 1017.4R   2/ 4
29.2N   88.2W              83 85  260/  6/  8 1017.9R   1
28.8N   86.0W              77 85  140/ 19/ 21 1017.6    4/ 5
PANAMA CITY BEAC NOT AVBL
CAPE SAN BLAS    NOT AVBL
TOWER C                    78     340/ 19/ 23 1018.5R
28.5N   84.5W              83 86   90/  4/  6 1017.9R   2/ 5   2/ 5

$$
FLZ011-016>038-118-127-128-134-139-239-291400-
NORTH FLORIDA

CITY           SKY/WX    TMP DP  RH WIND       PRES   REMARKS
MARIANNA       CLOUDY    75  73  93 NE8       30.10R
TALLAHASSEE    CLOUDY    77  72  84 NE3       30.10S
PERRY          LGT RAIN N/A N/A N/A NE3       30.10S
CROSS CITY       N/A     76  73  91 NE3       30.09S
LAKE CITY      FAIR      75  73  94 NE3       30.12R
GAINESVILLE    MOSUNNY   77  73  87 E5        30.10S
MAYPORT NAS    LGT RAIN  81  76  84 N3        30.11R
JACKSONVILLE   PTSUNNY   78  73  84 N3        30.11S
JAX NAS        PTSUNNY   82  74  76 N8        30.12R
JAX CRAIG      PTSUNNY   79  75  87 NE5       30.11R
JAX CECIL      SUNNY     77  73  88 CALM      30.12R
FERNANDINA BEA FAIR      79  75  89 N7        30.11R
ST AUGUSTINE   MOSUNNY   80  76  87 N3        30.12R

STATION/POSITION SKY/WX   TEMP    WIND        PRES    WAVE   SWELL
                          AIR SEA DIR/SP/G            HT/PER HT/PER
                          (F)     (DEG/KT/KT) (MB)    (FT/S) (FT/S)
SHELL POINT                74      40/  5/  8   N/A
KEATON BEACH               74      60/  7/  9 1018.8F
CEDAR KEY                  77      80/ 11/ 13 1018.9S
FERNANDINA       NOT AVBL
30.7N   81.3W                 86                N/A     3/ 6   2/11
MAYPORT          NOT AVBL
31.4N   80.9W              83 85   80/ 10/ 12 1019.8R   3/ 6   3/ 6
ST AUGUSTINE               81 85  340/  5/  6 1020.2R

$$
FLZ040-043>046-052-053-057-058-063-144-291400-
INTERIOR CENTRAL FLORIDA

CITY           SKY/WX    TMP DP  RH WIND       PRES   REMARKS
OCALA          SUNNY     75  72  88 NE3       30.10R
THE VILLAGES     N/A     79  77  94 NE6       30.00S
LEESBURG       MOSUNNY   79  75  87 NE6       30.10S
SANFORD        MOSUNNY   80  76  87 CALM      30.09R
ORLANDO EXEC   MOSUNNY   80  78  94 CALM      30.09R
ORLANDO INTL   PTSUNNY   80  78  94 E3        30.09R
KISSIMMEE      SUNNY     79  79 100 CALM      30.09R
WINTER HAVEN   MOSUNNY   79  77  94 E7        30.09S
LAKELAND       PTSUNNY   81  75  83 E5        30.09R
OKEECHOBEE     MOSUNNY   77  77 100 CALM      30.07S

$$
FLZ041-047-054-059-064-141-147-291400-
EAST CENTRAL FLORIDA

CITY           SKY/WX    TMP DP  RH WIND       PRES   REMARKS
ORMOND BEACH   SUNNY     79  75  89 CALM      30.10R
DAYTONA BEACH  PTSUNNY   83  76  79 CALM      30.10R
DELAND           N/A     81  75  83 CALM      30.11S
NEW SMYRNA BEA MOSUNNY   81  73  78 CALM      30.10R
TITUSVILLE     MOSUNNY   73  72  94 CALM      30.08
CAPE CANAVERAL MOSUNNY   84  82  91 SE8       30.07R HX 100
PATRICK AFB    MOSUNNY   85  77  77 E12       30.07S HX  95
MELBOURNE      MOSUNNY   84  77  79 E10       30.07S
VERO BEACH     SUNNY     86  75  69 SE8       30.07R HX  95
FT PIERCE      SUNNY     85  76  74 SE12      30.06R
STUART         MOSUNNY   82  75  78 E12       30.07R

STATION/POSITION SKY/WX   TEMP    WIND        PRES    WAVE   SWELL
                          AIR SEA DIR/SP/G            HT/PER HT/PER
                          (F)     (DEG/KT/KT) (MB)    (FT/S) (FT/S)
28.5N   80.2W              83 84  120/ 12/ 12 1018.7R
28.9N   78.5W              83 85  110/ 10/ 12 1019.0R
TRIDENT PIER     NOT AVBL
28.4N   80.5W                 85                N/A     2/11
27.5N   80.2W                 84                N/A     3/12   2/12

$$
FLZ050-056-061-142-242-148-248-149-249-151-251-155-255-
160-260-291400-
WEST CENTRAL FLORIDA

CITY           SKY/WX    TMP DP  RH WIND       PRES   REMARKS
CRYSTAL RIVER  CLOUDY    75  73  94 E3        30.09S FOG
INVERNESS      CLOUDY    75  75 100 E5        30.10S
BROOKSVILLE    FOG       76  75  97 E7        30.09S VSB 1/2
CLEARWATER     CLOUDY    78  74  87 E7        30.07R
TAMPA INTL     CLOUDY    78  73  84 E5        30.08S
TAMPA EXEC     CLOUDY    79  75  89 E5        30.09R FOG
PLANT CITY     PTSUNNY   79  79 100 E3        30.10S FOG
MACDILL AFB    CLOUDY    77  77 100 E9        30.07S
PETER O KNIGHT CLOUDY    81  77  89 E6        30.08S
ST PETERSBURG  CLOUDY    79  74  84 E10       30.06R
SARASOTA       PTSUNNY   78  74  87 E9        30.05R
VENICE         FAIR      77  75  94 E12       30.07R

STATION/POSITION SKY/WX   TEMP    WIND        PRES    WAVE   SWELL
                          AIR SEA DIR/SP/G            HT/PER HT/PER
                          (F)     (DEG/KT/KT) (MB)    (FT/S) (FT/S)
CEDAR KEY                  77      80/ 11/ 13 1018.9S
28.5N   84.5W              83 86   90/  4/  6 1017.9R   2/ 5   2/ 5
27.3N   84.2W                 86                N/A     3/ 4
CLEARWATER BEACH NOT AVBL
MIDDLE TAMPA BAY NOT AVBL
VENICE                     78 87   80/  6/  8 1017.5R

$$
FLZ066-069-070-075>078-162-262-165-265-291400-
SOUTHWEST FLORIDA AND KEYS

CITY           SKY/WX    TMP DP  RH WIND       PRES   REMARKS
PUNTA GORDA    PTSUNNY   78  77  96 NE7       30.07S
FT MYERS       MOSUNNY   81  77  88 E7        30.04R
SOUTHWEST INTL MOSUNNY   81  76  84 E8        30.04S
NAPLES         MOSUNNY   82  76  81 E9        30.03S
MARATHON       SUNNY     88  79  74 E10       29.99F HX 103
KEY WEST NAS   MOSUNNY   86  77  74 E12       30.00R HX  97
KEY WEST INTL  PTSUNNY   87  78  74 E8        30.00S HX 100

STATION/POSITION SKY/WX   TEMP    WIND        PRES    WAVE   SWELL
                          AIR SEA DIR/SP/G            HT/PER HT/PER
                          (F)     (DEG/KT/KT) (MB)    (FT/S) (FT/S)
VENICE                     78 87   80/  6/  8 1017.5R
NAPLES           NOT AVBL
26.0N   85.6W              85 87  110/  6/ 10 1015.9R   2/ 5   2/ 5
DRY TORTUGAS               85     100/ 16/ 17 1015.8R
NW FL BAY                  84      80/ 10/ 11 1016.2
SAND KEY                   86      90/ 13     1015.7R
LONG KEY                   86 87   90/ 13/ 15 1016.5F
MOLASSES REEF              86 87   90/ 15/ 17 1016.0S

$$
FLZ067-068-071>074-168-172>174-291400-
SOUTHEAST FLORIDA

CITY           SKY/WX    TMP DP  RH WIND       PRES   REMARKS
W PALM BEACH   PTSUNNY   85  77  77 E14       30.05S HX  95
FT LAUDER-EXEC MOSUNNY   86  77  74 E14       30.03F HX  97
FT LAUDERDALE  PTSUNNY   86  78  77 E13       30.03S HX  98
POMPANO BEACH  MOSUNNY   86  76  71 E10       30.04S HX  96
PEMBROKE PINES MOSUNNY   87  77  72 E12       30.04F HX  99
OPA LOCKA      PTSUNNY   86  77  74 E13       30.03F HX  97
MIAMI          PTSUNNY   87  78  74 E13       30.03S HX 100
WEST KENDALL   SUNNY     87  78  74 E12       30.03S HX 100
HOMESTEAD      MOSUNNY   87  78  74 NE10      30.02S HX  98

STATION/POSITION SKY/WX   TEMP    WIND        PRES    WAVE   SWELL
                          AIR SEA DIR/SP/G            HT/PER HT/PER
                          (F)     (DEG/KT/KT) (MB)    (FT/S) (FT/S)
PORT EVERGLADES            86      70/  8/ 12 1017.0F
SETTLEMENT POINT           84      90/ 11/ 11 1018.2R

$$



USA.gov is the U.S. government's official web portal to all federal, state and local government web resources and services.